Regional Weather Roundup
Issued by NWS New Orleans/Baton Rouge, LA

Home | Current Version | Previous Version | Text Only | Print | Product List | Glossary On
Versions: 1 2 3 4 5 6 7 8 9 10 11 12 13 14 15 16 17 18 19 20 21 22 23 24 25 26 27 28 29 30 31 32 33 34 35 36 37 38 39 40 41 42 43 44 45 46 47 48 49 50
000
ASUS44 KLIX 300610
RWRLIX
NEW ORLEANS REGIONAL WEATHER ROUNDUP
NATIONAL WEATHER SERVICE NEW ORLEANS LA
100 AM CDT SAT AUG 30 2014

NOTE: "FAIR" INDICATES FEW OR NO CLOUDS BELOW 12,000 FEET WITH NO
      SIGNIFICANT WEATHER AND/OR OBSTRUCTIONS TO VISIBILITY.
      SKY/WX - SKY CONDITION AND SIGNIFICANT WEATHER.
      TMP - AIR TEMPERATURE.     DP    - DEWPOINT TEMPERATURE.
      RH  - RELATIVE HUMIDITY.   PRES  - PRESSURE.
      HI  - HEAT INDEX.          WCI   - WIND CHILL INDEX.

*  THESE STATIONS ARE NOT NWS OR FAA STATIONS AND ARE NOT UNDER
   NWS QUALITY CONTROL.

LAZ038-040-048-061>063-065>067-069-300700-
SOUTHEAST LOUISIANA

CITY           SKY/WX    TMP DP  RH WIND       PRES   REMARKS
N.O. AUDUBON     N/A     78  76  91 MISG        N/A
6HR MIN TEMP:  78; 6HR MAX TEMP:  79;

N.O. INTL ARPT CLOUDY    78  73  84 SE7       30.00F
6HR MIN TEMP:  77; 6HR MAX TEMP:  79; 6HR PCP: TRACE;

N.O. LAKEFRONT   N/A     79  76  90 SE8       30.01F
6HR MIN TEMP:  77; 6HR MAX TEMP:  79;

N.O. DOWNTOWN*   N/A     79  72  78 E3        30.01F
6HR MIN TEMP:  79; 6HR MAX TEMP:  79;

SLIDELL          N/A     78  75  90 SE3       30.01F
6HR MIN TEMP:  77; 6HR MAX TEMP:  79; 6HR PCP: TRACE;

BATON ROUGE    LGT RAIN  76  73  91 E5        30.00F
6HR MIN TEMP:  76; 6HR MAX TEMP:  79; 6HR PCP:  0.02;

BOOTHVILLE       N/A     80  77  90 SE7       30.03F
6HR MIN TEMP:  78; 6HR MAX TEMP:  80;

BELLE CHASSE     N/A     79  74  84 SE7       30.00F
6HR MIN TEMP:  77; 6HR MAX TEMP:  80; 6HR PCP: TRACE;

BOGALUSA*        N/A     78  73  87 CALM      30.05S
6HR MIN TEMP:  77; 6HR MAX TEMP:  78;

GALLIANO*      NOT AVBL
NEW ROADS*       N/A     75  73  92 SE5       30.00S
6HR MIN TEMP:  75; 6HR MAX TEMP:  80; 6HR PCP:  0.02;

GONZALES*      DRIZZLE   76  76  99 CALM      29.99F
6HR MIN TEMP:  76; 6HR MAX TEMP:  77; 6HR PCP:  0.01;

HAMMOND*         N/A     77  73  88 CALM      30.03S
HOUMA*           N/A     76  73  92 NE3       29.99F
6HR MIN TEMP:  75; 6HR MAX TEMP:  76; 6HR PCP:  0.96;

PORT FOURCHON* PTCLDY    82  75  78 SE16G22   30.00F

$$

MSZ070-080>082-300700-
SOUTHERN MISSISSIPPI

CITY           SKY/WX    TMP DP  RH WIND       PRES   REMARKS
MCCOMB           N/A     75  73  93 SE5       30.04R
6HR MIN TEMP:  74; 6HR MAX TEMP:  79; 6HR PCP: TRACE;

GULFPORT       MOCLDY    81  77  88 S7        30.03S
6HR MIN TEMP:  77; 6HR MAX TEMP:  81;

BILOXI           N/A     82  76  83 S9        30.04R
6HR MIN TEMP:  77; 6HR MAX TEMP:  82;

PASCAGOULA       N/A     78  75  90 S5        30.05R
6HR MIN TEMP:  76; 6HR MAX TEMP:  78; 6HR PCP: TRACE;


$$

COASTAL OBSERVATIONS
LAKE AND NEARSHORE STATIONS

STATION/POSITION TIME  TEMP    WIND        PRES    WAVE
                       AIR SEA DIR/SP/G            HT/PER
                 (UTC) (F)     (DEG/KT/KT) (MB)    (FT/S)
PASCAGOULA       0600   83     150/  6/ 10 1017.0
WAVELAND YACHT   0600   83     190/  8/ 13 1016.1
GRAND ISLE       0600   81 83  140/  8/ 17 1016.7
SOUTHWEST PASS   0600   82 88  140/ 10/ 16 1016.9
NEW CANAL        0600   79 83  140/  3/  7 1016.5
SHELL BEACH      0600   80 80  140/  9/ 10 1016.4

OFFSHORE STATIONS

STATION/POSITION TIME  TEMP    WIND        PRES    WAVE
                       AIR SEA DIR/SP/G            HT/PER
                 (UTC) (F)     (DEG/KT/KT) (MB)    (FT/S)

$$



USA.gov is the U.S. government's official web portal to all federal, state and local government web resources and services.